GFSSW_500_spd_015.txt.gz
Wind_Speed
12 11 8 6 4 5 9 12 15 17 19 22 24 26 28 29 28 30 32 32 27 22 18 15 14 15 17 18 20 21 22 21 22 22 20 20 23 26 28 29 29 28 26 28 28
15 14 11 8 6 6 9 11 14 15 18 23 27 27 26 28 28 29 32 33 30 26 23 21 18 17 18 20 20 21 22 21 21 22 23 24 25 28 30 31 29 29 29 29 28
17 16 14 10 8 8 9 11 12 13 18 22 27 27 26 28 27 30 32 33 31 28 24 24 23 23 22 21 22 23 24 24 25 25 26 27 28 30 31 34 34 31 30 30 31
18 19 17 14 11 9 9 10 9 12 16 21 25 27 26 27 28 29 30 32 32 32 30 27 26 25 24 21 23 23 24 25 26 27 28 30 31 31 35 35 33 31 31 32 32
20 21 20 17 14 12 11 10 10 11 15 18 23 25 27 27 27 27 27 29 31 32 32 30 28 27 27 27 24 25 25 25 27 27 30 31 33 36 33 33 34 33 33 37 35
23 24 23 20 18 15 14 13 11 12 14 17 21 24 27 26 27 26 27 27 28 29 30 30 28 27 26 28 29 27 24 24 24 26 29 30 30 33 34 36 34 33 35 37 39
27 27 26 23 21 19 17 15 15 14 14 16 20 23 26 25 27 27 27 26 26 27 29 30 29 27 25 26 27 27 27 26 26 26 26 27 29 33 37 36 34 33 34 39 39
31 30 29 27 24 23 21 20 18 17 16 16 19 22 24 26 26 27 27 28 27 27 29 30 31 30 27 27 28 28 28 27 25 25 26 27 30 36 40 40 37 39 40 43 44
34 33 31 30 28 26 25 24 22 20 19 18 20 22 23 27 27 28 28 28 29 28 30 31 31 31 32 30 30 30 30 31 32 31 31 32 32 38 45 44 45 45 45 47 51
37 36 35 33 32 30 29 28 26 24 23 23 22 24 25 27 27 30 29 31 30 31 31 32 31 31 31 33 34 34 34 33 34 36 36 38 39 41 47 49 49 50 51 51 53
40 40 38 37 36 34 31 31 30 29 26 27 25 25 28 28 29 31 30 34 32 33 33 33 33 32 31 35 38 39 37 38 34 37 39 42 44 45 48 51 49 53 56 56 56
42 42 41 41 40 38 35 34 34 34 27 30 29 30 31 31 32 33 34 37 35 35 35 34 36 34 35 40 41 42 43 42 42 44 44 46 47 48 48 50 53 54 54 53 56
43 44 45 45 43 42 39 38 38 39 37 28 30 32 33 34 34 35 37 38 36 38 39 37 39 39 40 42 45 42 47 46 48 49 48 50 51 49 49 52 52 52 56 56 60
45 45 46 47 46 45 44 42 42 43 45 35 34 34 35 38 38 39 40 41 39 40 42 43 41 40 42 43 46 46 49 50 49 52 56 52 57 53 53 55 55 60 59 62 64
47 48 49 50 49 48 48 46 46 47 51 41 38 39 39 43 42 41 42 43 39 42 44 44 47 46 47 46 46 49 52 53 55 54 55 50 56 54 54 56 54 56 61 62 62
52 51 52 52 52 53 52 52 51 53 53 48 46 44 45 47 46 46 46 44 41 43 42 45 48 48 50 50 52 54 53 55 57 57 59 57 58 56 58 61 60 64 64 63 66
56 56 55 55 54 55 55 57 58 59 52 52 50 50 50 50 50 48 49 45 43 49 45 47 49 49 53 54 56 57 58 62 63 64 63 63 65 61 63 63 64 65 65 67 65
60 59 59 58 58 58 60 63 66 61 53 53 54 54 54 53 54 51 50 46 42 45 50 52 53 52 55 56 59 59 58 63 70 65 62 62 64 65 64 64 66 67 68 69 67
65 63 61 61 61 61 64 70 67 62 56 55 57 60 59 55 53 55 51 50 47 46 48 53 55 57 57 58 59 60 62 65 70 64 63 65 65 68 69 70 66 66 70 69 69
68 69 66 64 64 65 71 73 68 60 59 61 62 63 62 56 54 55 55 55 52 51 51 54 57 58 58 59 58 60 65 69 75 70 69 66 68 75 70 68 64 68 69 68 69
70 71 69 67 69 73 77 74 69 65 63 65 66 66 60 53 53 56 58 57 55 54 57 58 59 60 62 62 64 65 68 72 73 73 72 77 75 71 70 65 68 70 69 67 64
78 78 74 70 72 78 79 74 72 69 67 67 68 63 57 56 57 56 58 59 59 59 61 61 63 65 65 68 67 71 71 72 70 68 73 73 77 70 64 63 69 69 68 64 63
77 77 81 82 82 78 77 75 72 73 67 66 65 63 59 60 62 59 61 59 59 61 63 62 66 68 67 71 73 71 66 67 68 70 72 72 74 66 63 65 66 65 64 65 67
81 82 84 83 80 82 80 78 79 75 73 71 70 68 68 63 62 66 64 62 62 65 64 63 66 65 70 73 75 73 69 69 67 70 62 71 64 64 58 60 63 64 65 67 68
84 86 86 87 84 80 80 78 78 81 80 76 71 72 69 68 68 67 64 66 69 67 66 67 72 75 74 72 73 69 72 70 69 62 66 65 63 51 53 61 65 67 67 66 66
97 93 90 87 85 84 83 84 85 83 78 76 79 72 69 74 70 67 67 69 67 70 71 72 74 79 71 73 69 71 71 63 65 68 64 60 57 48 57 62 64 66 66 67 64
82 87 98 93 89 89 86 86 84 78 82 79 74 72 73 71 69 70 71 72 69 71 74 74 78 82 74 73 67 73 65 65 65 57 46 51 53 54 58 58 65 66 66 64 60

GFSSW_500_spd_021.txt.gz
Wind_Speed
15 15 14 13 12 10 8 7 4 3 6 9 12 15 16 14 15 15 16 18 17 16 16 15 12 10 8 9 10 12 14 16 17 18 18 20 21 21 20 21 20 20 20 22 21
18 19 18 16 15 14 12 11 8 6 6 7 10 12 14 13 13 13 15 16 17 16 17 17 17 19 16 13 13 12 13 15 16 18 19 22 22 21 20 20 19 20 22 22 23
21 21 21 20 18 18 16 15 12 10 8 8 8 9 11 13 13 12 14 15 16 17 16 17 19 20 18 16 14 14 15 16 17 18 19 21 22 20 20 19 20 20 20 23 25
25 24 24 24 22 21 20 19 17 14 13 11 9 8 9 11 12 12 13 14 14 16 16 16 18 20 20 19 18 18 17 18 18 20 19 19 20 21 19 18 17 18 21 23 25
28 28 27 27 26 26 25 24 21 19 17 15 13 11 9 10 11 13 13 13 15 16 17 17 18 18 18 18 18 19 18 19 21 22 24 23 22 23 21 20 20 22 24 26 30
31 31 30 30 30 29 29 28 26 23 21 20 19 16 14 12 11 13 13 14 16 17 19 19 19 19 19 18 17 18 19 20 23 24 25 25 24 26 25 25 26 27 29 31 32
33 34 34 33 33 33 32 31 30 29 27 25 23 22 20 17 15 15 15 15 16 18 19 22 22 22 22 21 19 18 20 23 25 26 27 27 23 28 27 26 27 28 30 32 34
34 35 36 37 37 36 36 35 34 33 32 30 29 27 25 23 20 20 19 18 18 20 21 23 25 24 24 22 23 24 26 27 29 31 30 29 24 33 32 31 30 31 31 33 34
35 35 36 38 39 39 39 39 38 36 36 34 33 31 30 27 26 26 24 23 22 22 24 24 27 28 29 28 27 27 27 28 32 35 35 34 27 31 32 33 33 33 34 35 34
37 36 37 37 40 42 43 43 42 41 39 38 37 35 33 31 31 31 28 28 27 26 27 27 29 30 33 34 33 31 29 29 33 37 38 39 36 36 38 34 33 34 34 35 35
40 39 39 39 40 42 46 47 46 45 43 41 40 38 36 35 33 33 31 31 30 31 30 29 31 33 35 37 37 35 35 34 34 39 46 42 45 38 41 36 38 38 38 39 41
44 42 42 41 41 43 45 47 50 51 48 45 43 40 38 37 36 36 36 34 33 33 32 35 34 36 37 40 41 39 39 37 37 40 46 45 49 46 41 34 40 40 40 41 44
46 45 44 44 43 43 44 47 49 51 53 49 45 41 37 37 38 38 40 39 36 34 37 40 40 40 40 40 44 42 43 43 44 44 46 50 53 50 36 37 37 39 39 39 43
49 48 46 47 46 45 45 46 47 49 56 52 50 44 40 38 39 40 41 40 40 41 42 44 42 43 42 42 45 47 43 45 47 48 52 50 56 55 51 46 46 45 45 46 50
52 51 50 50 49 48 50 49 49 48 61 53 48 45 43 43 43 42 44 45 47 46 46 45 46 46 44 44 45 48 48 48 49 49 55 51 60 60 52 54 52 50 50 50 52
55 54 53 51 52 52 52 53 53 57 65 56 50 46 44 45 49 50 50 49 49 50 50 48 49 49 48 49 48 49 50 51 52 52 58 57 61 61 53 57 56 52 54 55 56
58 57 57 55 54 54 55 56 58 66 60 57 53 50 47 49 51 53 54 55 52 52 52 53 52 52 51 52 51 52 51 54 57 57 61 61 66 57 62 57 60 57 56 58 56
60 61 59 59 57 58 59 62 70 66 60 56 55 54 55 54 54 55 57 57 54 54 54 55 57 54 56 54 54 53 51 54 58 61 64 65 66 65 63 59 57 58 59 62 59
58 60 62 61 63 62 63 71 72 67 66 62 60 61 60 58 57 59 59 60 56 53 51 56 59 59 60 58 55 52 54 56 60 61 66 70 67 67 66 61 61 60 63 63 61
63 64 64 61 64 67 71 79 78 71 67 63 63 65 67 64 65 64 64 65 61 55 52 55 56 60 61 61 59 56 58 57 63 64 70 72 71 68 67 66 64 63 64 62 61
68 69 66 66 70 70 74 74 71 67 69 68 69 67 65 65 66 67 66 66 62 58 56 54 54 58 64 64 61 61 60 61 64 70 73 76 69 70 66 68 66 66 65 60 59
71 75 73 70 72 75 77 74 72 70 66 68 68 68 70 69 68 69 69 64 62 60 59 59 60 66 66 70 68 65 63 63 68 72 76 77 69 64 70 72 69 73 68 62 59
79 78 79 80 81 80 78 77 74 75 74 72 73 72 70 71 72 70 66 65 66 67 64 61 69 73 76 77 74 71 67 65 69 75 79 76 77 72 76 74 71 73 67 58 57
80 80 88 87 80 82 82 78 80 78 78 78 75 74 76 74 73 73 71 70 70 67 67 67 72 79 81 78 74 74 70 70 73 80 73 80 80 68 72 64 66 66 56 55 49
87 90 93 93 84 85 86 82 78 86 84 79 78 77 71 74 74 75 71 70 69 72 70 71 79 78 79 80 78 75 74 76 76 77 79 75 82 81 69 61 65 59 59 50 48
89 91 96 93 95 91 93 82 83 82 83 82 83 76 77 82 76 74 75 75 74 74 77 79 80 76 82 82 79 78 72 78 75 75 77 79 84 62 54 58 57 54 46 48 55
80 75 84 94 94 95 98 93 88 81 86 86 80 82 86 82 71 70 76 80 77 75 76 81 85 85 87 78 80 80 71 74 73 69 77 77 70 55 55 58 49 42 46 54 59

GFSSW_500_spd_024.txt.gz
Wind_Speed
16 16 17 15 15 14 11 9 7 5 5 4 7 10 12 10 9 9 10 12 12 12 12 12 13 13 10 9 10 10 11 12 14 17 18 19 20 20 20 19 19 20 22 22 23
20 19 20 20 18 17 16 14 12 10 9 7 6 7 8 10 8 7 8 10 10 12 12 12 14 14 12 11 9 11 12 13 14 15 16 17 19 20 20 21 22 23 23 24 23
25 24 23 23 23 21 20 19 17 15 13 12 10 8 7 9 9 7 8 10 10 11 13 15 14 15 13 12 11 12 14 16 17 18 18 18 18 18 18 19 20 20 21 21 22
28 28 26 26 26 25 24 23 22 20 18 17 16 13 12 10 10 9 9 9 10 12 12 14 15 16 17 15 13 12 13 16 17 18 20 21 22 19 19 19 20 20 20 22 25
30 30 30 29 29 29 29 27 26 25 23 22 21 20 18 16 13 12 12 11 12 13 13 15 15 17 18 18 17 16 15 16 17 18 21 23 24 25 22 19 20 21 22 24 27
35 34 34 33 33 34 33 32 31 30 29 27 25 25 23 23 21 17 16 15 15 15 15 16 17 17 17 18 20 19 19 21 23 22 21 22 25 30 27 27 27 27 27 28 30
37 37 37 37 37 37 37 36 35 35 33 32 30 29 28 28 27 25 21 20 19 20 20 20 21 21 20 19 21 22 24 27 28 26 24 20 23 29 27 28 30 32 33 33 34
39 38 38 38 39 40 41 40 39 38 38 36 35 34 32 32 32 31 29 27 25 24 24 25 25 25 25 24 25 26 26 27 30 30 28 26 21 31 32 30 30 33 34 34 36
39 39 38 38 39 41 43 44 43 43 41 41 40 39 36 35 35 35 34 33 31 30 28 27 29 29 29 29 29 30 31 30 31 35 34 33 24 31 31 32 35 38 36 34 35
40 40 40 40 39 40 42 43 46 46 46 45 45 44 40 38 38 37 36 36 35 34 33 32 33 33 33 34 34 35 35 34 34 39 38 35 34 30 33 36 37 38 37 37 37
44 44 44 43 42 41 41 43 44 47 48 48 50 48 45 42 39 38 39 39 38 37 36 37 36 35 37 38 38 40 40 39 38 42 45 39 40 36 33 38 40 37 41 42 41
48 48 47 47 47 46 44 44 45 47 48 49 50 50 49 45 44 40 39 42 40 39 39 39 38 38 40 42 42 43 44 43 44 45 48 46 44 42 37 39 40 43 43 45 47
51 50 51 51 50 49 48 47 47 48 51 46 48 49 48 49 47 44 42 42 41 40 41 41 39 40 44 45 45 47 48 49 50 49 50 52 51 50 36 37 39 41 42 45 47
53 52 51 51 52 50 51 51 50 50 56 51 45 44 44 46 46 42 44 44 43 42 42 44 43 45 47 47 49 53 49 52 53 55 57 52 60 56 51 44 42 43 46 49 48
56 56 54 53 52 51 51 52 53 53 65 58 49 44 41 39 40 41 43 45 46 46 47 48 49 49 50 50 50 54 53 54 56 55 60 56 60 62 54 53 46 52 51 53 54
57 57 58 57 55 54 54 54 56 58 70 61 52 48 46 44 42 43 43 46 48 51 51 49 52 53 52 51 52 53 54 58 59 59 65 58 63 65 55 53 54 52 53 57 57
56 58 58 60 59 58 57 57 59 69 65 61 55 51 49 46 47 48 48 50 51 51 52 52 52 54 53 53 53 54 55 59 63 62 64 64 70 59 58 59 53 53 56 60 62
55 57 58 59 61 61 60 61 70 71 66 62 58 54 55 53 52 52 53 55 53 53 54 54 58 53 56 55 58 59 58 56 60 62 68 70 71 68 66 60 58 51 61 61 59
59 59 59 58 60 62 63 69 75 70 67 64 61 60 59 56 55 55 58 60 57 54 53 54 60 58 57 58 60 62 60 57 59 62 68 70 68 73 68 57 61 59 60 64 66
64 64 63 61 64 65 66 72 74 69 68 63 64 65 65 60 60 61 62 62 60 57 52 54 56 58 60 66 67 64 62 61 62 65 71 69 73 76 68 62 63 56 65 66 67
69 70 67 67 67 67 74 75 70 66 64 64 65 65 63 61 61 61 62 63 61 61 60 59 57 59 59 61 63 64 67 66 67 71 74 75 73 70 66 60 64 58 66 67 70
78 78 76 72 76 75 77 73 72 70 67 68 68 65 64 63 65 67 68 65 61 62 65 65 64 66 65 68 70 68 63 62 66 70 76 81 74 63 64 64 61 60 70 73 73
78 76 80 82 78 78 80 78 76 76 72 71 71 72 66 67 69 69 67 62 62 64 64 63 67 70 73 74 76 72 69 70 69 74 84 78 73 63 66 63 62 64 71 72 69
77 82 83 87 85 82 78 76 81 79 78 80 77 73 74 73 70 72 71 67 64 66 70 62 67 75 73 73 76 79 76 76 74 82 83 82 84 65 65 66 63 69 70 69 64
72 80 84 89 89 86 81 85 83 81 80 79 81 78 72 74 74 77 70 67 67 68 70 71 75 74 75 75 78 78 73 74 79 78 82 75 82 72 64 64 67 69 67 64 57
80 83 85 88 88 89 88 81 77 83 85 84 86 83 81 83 78 75 66 65 68 70 75 78 80 78 81 77 78 80 76 77 77 73 78 73 74 59 62 61 62 63 62 57 59
87 84 87 85 83 82 84 93 91 80 84 86 87 84 90 85 72 66 70 74 74 73 72 76 78 75 79 74 79 81 75 73 70 71 71 71 65 60 59 55 56 60 56 56 58

GFSSW_500_spd_027.txt.gz
Wind_Speed
17 16 17 17 16 15 14 13 11 10 8 7 6 5 7 10 9 8 7 7 8 9 9 10 11 12 12 12 10 10 11 11 11 11 12 12 14 16 17 19 20 22 22 23 23
22 21 18 20 20 19 19 17 16 15 13 11 10 8 7 6 8 10 9 9 8 8 9 10 10 12 12 11 11 11 10 11 12 13 13 14 15 15 16 17 19 19 21 21 22
27 26 25 23 23 24 23 22 21 20 19 17 16 14 12 10 8 8 9 10 10 10 9 10 10 12 14 12 12 11 12 12 10 10 12 13 15 15 17 19 18 19 20 20 21
31 30 29 29 28 28 28 26 26 25 24 23 21 19 18 16 15 12 13 12 12 12 12 12 13 12 13 14 13 14 14 14 15 16 16 16 17 17 19 19 18 19 21 23 25
34 33 32 33 33 32 31 31 29 30 29 28 26 25 24 22 20 19 18 17 17 16 16 15 14 15 16 15 16 16 17 19 20 20 19 19 20 22 21 22 22 24 26 27 28
39 37 36 35 35 35 35 34 34 34 33 33 31 30 29 28 26 26 24 22 22 21 21 20 19 18 17 18 19 19 21 22 24 24 22 19 20 22 23 23 25 25 28 31 34
41 41 40 39 40 39 40 38 37 37 37 37 36 35 34 33 32 32 30 28 27 26 25 25 25 24 22 22 21 22 23 26 26 28 26 20 21 25 26 22 24 24 27 30 33
43 43 42 41 41 42 42 42 42 41 41 40 40 39 37 36 37 35 34 34 34 33 31 30 29 30 29 27 26 27 25 26 29 31 33 28 17 29 32 28 27 29 32 32 31
41 42 42 42 42 43 44 43 44 44 44 44 44 44 41 39 39 38 37 37 38 38 38 37 36 33 33 33 33 31 33 31 32 34 36 37 27 29 31 33 31 33 36 36 32
43 42 43 42 42 41 42 42 43 44 45 45 46 47 44 43 42 41 39 39 40 40 40 41 41 38 35 37 37 38 39 38 37 41 39 41 35 30 33 34 32 33 40 38 38
47 45 45 44 43 43 43 44 44 45 43 44 46 45 46 45 46 46 44 42 41 41 40 42 43 38 39 41 41 40 42 44 42 44 48 45 42 38 35 35 33 38 36 42 43
50 50 51 50 48 48 47 48 48 49 47 47 48 48 44 44 45 45 45 46 43 42 42 43 42 39 41 41 41 42 46 46 47 49 53 51 48 43 40 36 37 33 39 40 43
53 52 52 53 52 51 50 50 51 52 55 51 50 49 45 44 43 40 42 44 43 44 44 46 43 42 41 41 43 47 48 50 53 54 55 58 56 49 41 40 36 37 36 40 42
53 56 54 54 54 53 53 52 52 54 59 60 52 49 45 43 44 40 39 41 43 43 45 46 42 41 43 44 47 52 49 53 55 58 60 57 62 59 51 44 45 39 37 38 45
52 55 58 58 56 55 55 55 54 52 64 64 61 47 42 41 43 39 40 40 41 42 44 43 43 45 46 47 49 53 52 53 56 59 65 59 63 65 59 53 48 43 42 43 47
55 56 56 58 58 58 56 57 57 58 71 65 62 54 46 43 43 43 41 42 44 45 46 45 47 48 48 49 50 52 53 55 59 60 68 61 63 71 62 58 52 45 46 47 52
57 56 57 58 56 57 59 58 60 70 70 65 61 58 54 48 47 46 46 46 45 46 46 46 48 50 49 50 51 52 53 59 65 64 70 68 72 64 62 58 50 47 51 51 52
60 58 57 58 58 58 59 61 68 71 66 64 63 61 59 55 52 50 50 50 48 48 50 51 53 50 53 52 54 55 53 52 61 66 75 74 68 62 62 58 49 48 49 48 48
65 60 60 61 62 62 62 67 69 67 67 65 64 63 62 59 55 54 54 55 52 49 51 52 57 55 53 55 57 60 62 59 62 67 70 67 66 67 65 59 54 49 46 44 51
72 73 70 64 65 66 68 72 72 68 67 63 63 63 62 58 59 57 56 57 54 51 48 53 56 55 55 57 57 55 56 59 59 62 67 72 71 74 73 63 56 54 51 49 52
78 79 74 73 75 74 77 72 70 70 67 67 68 65 63 61 60 61 61 60 57 52 55 58 57 60 60 62 61 59 62 62 63 69 69 66 74 67 63 57 58 58 53 51 57
86 78 80 75 63 70 76 77 71 70 67 70 71 69 65 61 61 64 65 62 59 56 57 58 61 64 59 61 63 65 65 67 69 68 69 73 72 55 59 54 55 56 54 57 60
77 74 75 71 76 80 70 71 78 82 77 73 72 71 72 74 73 70 64 60 59 62 63 64 66 65 65 68 67 64 62 63 65 67 74 75 74 64 64 59 55 59 55 58 62
69 71 65 74 76 77 73 64 69 72 74 76 77 74 72 71 72 75 73 71 66 63 65 66 69 68 71 69 69 71 69 64 66 77 81 82 79 67 59 59 56 60 55 58 61
69 73 81 77 85 80 73 77 69 71 76 71 75 75 73 73 75 75 68 65 64 65 67 68 74 77 79 76 73 75 71 70 73 76 84 80 78 71 61 60 56 62 58 62 63
77 75 82 84 77 79 78 78 80 78 78 77 78 72 69 75 74 76 71 73 76 74 72 75 82 82 82 77 77 76 76 73 73 75 76 74 78 69 62 65 64 59 61 66 61
84 85 82 73 81 88 87 91 88 73 83 85 80 76 81 78 72 75 77 77 77 78 76 76 77 75 80 76 81 81 78 67 67 75 72 81 76 71 69 66 62 60 62 63 62

GFSSW_500_spd_030.txt.gz
Wind_Speed
18 17 16 17 19 17 15 15 14 13 12 12 10 10 7 7 7 7 6 6 5 6 8 8 9 11 12 12 12 11 10 10 10 11 12 13 13 14 14 16 18 20 19 20 20
24 23 22 21 20 22 20 19 18 18 17 16 15 14 12 10 9 10 10 9 8 7 8 9 9 10 12 12 12 12 11 10 10 10 9 10 12 11 12 14 16 17 19 19 20
30 29 27 27 26 24 24 24 23 22 22 22 20 20 18 16 14 13 12 12 14 13 12 11 11 11 12 13 13 12 12 12 12 13 14 13 14 13 13 15 15 15 15 17 20
34 33 32 32 31 31 30 29 29 28 27 26 26 25 24 23 21 19 17 17 16 16 16 16 16 14 14 15 15 16 14 13 14 16 18 19 18 18 18 16 15 15 16 18 19
35 36 36 35 36 36 35 34 34 33 32 31 30 30 30 28 27 26 24 23 22 21 21 21 20 19 18 18 18 19 20 20 19 18 18 20 19 21 23 18 19 18 20 21 22
37 38 38 39 39 39 39 39 38 37 36 36 34 34 33 32 31 31 31 29 28 27 26 26 26 25 25 23 23 22 23 24 24 24 22 21 22 22 24 26 25 24 23 24 26
38 39 39 40 42 42 42 42 41 42 41 40 39 38 36 35 36 35 35 34 34 34 34 33 31 32 31 32 29 27 28 28 29 29 28 25 21 24 27 26 28 27 27 28 30
39 40 42 43 42 42 44 45 44 45 44 44 44 44 42 38 38 38 37 36 37 38 38 38 38 37 36 36 36 35 34 33 32 34 33 32 22 28 30 29 30 29 31 30 32
40 42 42 43 44 43 44 45 44 45 45 46 47 46 44 42 41 41 40 40 40 40 40 40 39 38 38 39 40 39 39 38 38 39 40 39 28 30 33 32 29 30 33 34 34
43 42 45 45 44 44 44 44 43 43 44 43 45 45 44 43 42 42 43 43 42 42 42 42 41 39 37 37 42 42 42 41 41 44 46 45 39 30 34 32 32 31 33 37 41
45 44 45 48 47 45 45 46 46 46 45 45 46 45 44 42 41 41 41 43 45 45 43 44 46 41 39 42 42 41 42 43 41 47 53 49 49 38 35 36 33 33 36 37 39
47 47 47 48 50 50 49 48 49 50 51 50 50 49 47 44 42 40 41 43 43 44 43 45 43 38 42 44 45 45 45 44 45 49 55 53 54 45 43 36 35 34 36 38 39
50 49 50 50 50 52 51 52 52 54 57 53 53 54 50 47 46 43 42 43 42 42 41 44 39 41 43 44 46 46 47 47 52 52 56 58 57 49 44 40 34 34 35 37 38
55 52 52 53 52 51 55 53 53 54 63 66 57 56 50 47 49 43 44 45 45 43 43 45 37 39 41 42 45 48 47 51 54 58 60 59 63 53 49 43 39 40 41 37 36
54 56 55 56 55 53 53 54 56 56 66 66 67 56 49 45 43 40 41 43 43 42 42 41 40 39 40 39 44 50 50 52 55 58 63 59 64 60 58 52 48 46 44 36 31
56 56 57 58 58 57 57 55 54 57 72 69 65 60 54 49 47 45 43 44 44 45 46 44 44 44 44 45 48 51 52 54 58 59 67 60 65 70 61 59 57 46 40 40 37
64 58 59 60 60 59 58 59 59 67 68 66 62 61 59 56 52 48 48 48 48 48 49 47 46 46 46 47 50 51 53 59 63 63 68 67 70 66 62 61 51 44 45 42 37
64 67 63 62 64 64 63 63 67 70 65 63 63 61 61 59 58 56 54 53 51 49 50 51 52 45 48 49 53 56 55 56 64 66 73 69 67 63 63 55 48 41 34 36 29
71 67 69 65 69 70 68 69 73 70 69 66 63 62 58 56 57 57 58 57 53 51 51 50 58 58 58 57 57 59 58 56 60 63 69 69 69 65 65 64 47 36 39 43 39
73 74 68 69 72 74 74 76 76 73 70 69 67 66 65 63 61 60 59 59 54 51 49 55 57 53 52 54 58 53 54 57 58 63 68 70 69 73 72 57 42 43 46 52 50
74 80 74 76 76 78 82 78 76 77 71 71 72 72 70 68 65 65 62 63 60 54 53 55 59 62 61 62 62 61 62 62 62 63 64 65 71 69 59 47 40 50 47 49 56
63 67 76 80 80 78 80 73 68 71 74 71 74 79 74 71 69 69 67 65 61 59 59 59 64 65 65 64 61 64 63 61 62 62 62 64 70 56 53 59 54 51 46 53 60
73 71 65 63 78 83 75 77 86 83 84 76 71 68 65 70 77 75 66 62 61 64 67 67 70 72 67 67 69 63 57 58 60 61 70 68 72 62 63 57 54 52 51 57 59
90 88 87 81 78 73 72 74 79 79 80 72 76 69 67 68 72 71 76 72 68 67 62 59 66 71 71 68 68 67 67 65 67 76 77 82 78 67 60 59 56 54 59 64 61
91 93 91 83 80 79 74 77 71 69 71 71 78 74 68 71 63 65 65 66 63 64 66 71 74 72 66 61 62 62 69 69 75 76 83 80 81 75 64 62 62 64 67 62 67
87 88 90 90 86 82 80 81 73 69 72 71 73 72 68 73 72 63 62 63 69 69 67 68 73 73 77 75 79 77 69 70 74 73 77 75 75 67 68 67 63 59 65 65 63
87 84 81 85 85 78 90 86 83 78 80 79 77 78 77 68 68 72 72 72 75 72 69 73 77 79 83 75 72 76 75 66 74 70 67 70 70 69 65 65 65 65 68 66 65

GFSSW_500_spd_033.txt.gz
Wind_Speed
19 17 17 17 17 20 20 18 17 17 16 16 15 14 13 12 11 10 11 10 10 11 11 12 12 13 13 14 14 12 12 11 10 12 13 14 14 15 16 17 17 16 15 16 16
25 24 24 23 22 21 21 23 22 21 20 20 20 19 18 17 16 15 13 13 12 13 12 12 13 14 15 15 14 14 14 13 12 11 11 14 16 15 16 16 16 16 16 15 16
30 30 29 29 28 27 27 25 25 25 26 25 25 24 23 22 21 21 20 19 18 17 17 17 16 16 17 18 18 16 16 16 15 16 16 16 17 18 20 19 19 17 15 16 16
34 34 34 34 33 33 32 32 32 32 31 31 31 30 29 28 26 27 26 26 24 23 23 23 22 22 21 21 22 21 21 21 20 20 21 20 19 19 21 19 19 20 21 19 19
35 35 35 35 36 36 37 36 37 37 37 36 36 35 34 33 31 31 31 31 31 30 30 29 29 28 28 27 27 26 25 26 26 25 25 24 22 21 26 22 21 22 24 24 23
34 35 36 37 38 38 38 39 40 40 40 40 40 39 38 36 37 35 34 35 35 35 35 34 34 35 34 34 34 34 31 32 30 30 29 30 27 24 25 27 26 25 27 27 27
34 36 37 38 39 39 40 42 43 43 43 43 44 44 42 39 40 39 38 38 37 37 38 37 38 39 38 38 39 40 38 39 35 36 35 35 31 26 28 29 29 29 28 28 30
35 36 37 39 39 40 43 44 43 45 46 46 47 48 47 43 43 43 41 39 39 39 40 40 40 40 39 40 42 42 43 43 42 39 40 41 34 37 31 30 30 33 32 31 33
38 39 39 40 40 40 43 46 46 46 47 47 47 48 48 44 44 44 43 43 42 41 42 42 41 41 41 43 43 42 46 45 43 44 44 46 42 38 39 35 30 33 36 35 35
42 41 42 44 43 42 42 45 48 49 48 48 48 47 45 42 42 42 42 42 43 42 42 42 43 42 42 42 44 42 47 47 45 48 50 48 47 38 42 45 35 33 36 40 40
47 46 45 45 45 44 44 45 47 51 50 50 51 49 48 44 42 40 40 42 42 42 41 42 45 40 38 44 44 44 47 48 42 47 54 50 54 47 42 45 39 37 37 41 42
50 50 49 49 49 48 47 48 48 49 54 52 54 54 51 49 47 43 43 45 45 44 44 46 47 36 42 42 46 47 48 45 46 50 55 53 56 51 48 41 37 38 35 39 43
50 51 52 52 53 52 52 51 51 52 55 56 55 57 56 54 51 48 45 47 48 49 48 49 46 45 43 42 44 45 47 45 48 51 54 57 57 50 47 41 34 34 35 36 39
49 50 52 52 53 54 54 55 55 54 59 63 57 60 57 54 56 49 48 47 49 50 49 55 48 48 48 45 45 47 44 46 48 54 56 59 61 49 46 43 39 37 34 38 42
49 51 51 52 50 53 56 55 56 57 64 67 67 59 52 52 50 47 43 44 45 47 48 51 50 46 47 45 46 50 48 50 52 56 61 60 61 58 57 50 49 43 42 37 29
56 53 54 55 52 52 53 56 56 58 73 71 70 64 59 56 52 50 49 48 46 49 49 48 53 50 51 49 49 50 52 53 57 60 66 61 63 68 62 55 54 47 30 36 41
61 62 60 60 60 57 56 56 58 68 71 72 69 67 63 58 56 53 51 50 49 52 54 53 54 52 51 52 54 55 54 59 64 65 67 64 71 70 66 65 62 43 41 40 33
61 64 63 62 63 66 64 63 66 68 68 68 71 68 66 64 60 58 58 55 52 52 54 58 59 55 55 54 57 58 58 61 65 66 72 70 73 71 70 64 52 52 26 31 26
67 65 65 59 60 68 70 73 70 69 69 70 70 70 68 65 66 63 63 63 58 53 54 55 59 60 60 62 63 65 64 59 65 69 73 71 68 66 66 68 57 32 33 22 35
73 60 71 67 64 65 73 73 73 74 74 76 74 74 72 68 70 69 67 67 66 59 54 60 62 59 60 60 63 64 62 64 64 65 68 69 71 72 70 64 40 35 31 43 47
77 74 71 67 65 64 65 74 70 71 72 76 78 78 76 74 74 76 73 67 71 69 63 62 62 65 66 65 62 63 63 65 66 68 69 71 74 71 67 61 45 48 40 51 50
83 84 78 70 66 68 69 61 65 69 69 66 72 74 74 76 77 77 75 71 72 72 71 68 71 72 68 64 64 65 64 63 64 64 65 67 73 61 57 60 54 57 57 50 52
89 88 85 81 79 80 70 62 66 65 69 74 70 64 76 73 70 74 67 68 70 70 70 68 75 76 66 66 69 69 66 68 68 69 73 73 72 60 60 63 62 60 56 55 59
89 91 90 90 86 86 88 86 69 59 64 74 76 76 74 78 78 76 79 79 73 70 61 66 71 66 64 65 61 65 65 61 61 69 71 76 72 63 59 60 61 60 55 57 58
83 87 90 90 93 89 90 94 96 94 91 79 80 79 77 84 79 72 69 68 74 60 60 67 76 74 71 71 71 72 70 73 75 74 75 73 72 70 65 66 66 64 55 59 60
84 82 83 82 86 91 91 93 94 93 94 91 88 84 82 83 75 71 70 67 65 67 64 64 66 65 67 62 65 71 71 69 71 73 76 76 78 72 61 64 58 53 58 61 58
83 84 84 83 83 85 88 90 92 90 93 90 85 82 82 87 84 77 76 75 78 76 77 76 69 70 72 67 65 74 72 70 68 68 69 72 64 54 60 52 45 51 55 56 61